Preview of NWS' New Version of Forecast
This preview is not operational and should not be used for support decisions.

Regional Weather Roundup (RWR)

Issued by San Angelo, TX (SJT)

                            
435 
ASUS44 KSJT 212310
RWRSJT
WEST CENTRAL TEXAS REGIONAL WEATHER ROUNDUP
NATIONAL WEATHER SERVICE SAN ANGELO TX
600 PM CDT THU JUN 21 2018

NOTE: "FAIR" INDICATES FEW OR NO CLOUDS BELOW 12,000 FEET WITH NO
SIGNIFICANT WEATHER AND/OR OBSTRUCTIONS TO VISIBILITY.

TXZ049-054-064>066-071>073-076>078-098-099-113-114-127-128-139-140-
154-155-168>170-220000
...LOCATIONS ACROSS WEST CENTRAL TEXAS...
  
CITY           SKY/WX    TMP DP  RH WIND       PRES   REMARKS
SAN ANGELO     SUNNY     99  59  26 NE6       29.91F                  
ABILENE        MOSUNNY   94  60  32 VRB5      29.91F                  
DYESS AFB      SUNNY     97  58  27 SE8       29.90F                  
JUNCTION       MOSUNNY   95  65  37 VRB5      29.90F                  
SWEETWATER     SUNNY     97  56  25 SE6       29.96F                  
BROWNWOOD      RAIN      99  59  26 SW7       29.88F                  
COLEMAN        CLEAR     99  57  25 S5        29.90F                  
SONORA         SUNNY     95  57  28 SE8       29.96F                  
OZONA          FAIR      99  54  22 E7G16     29.95F                  
BRADY          SUNNY     95  61  31 SE8G15    29.92F                  
$$

TEXAS PANHANDLE/OKLAHOMA PANHANDLE
  
CITY           SKY/WX    TMP DP  RH WIND       PRES   REMARKS
AMARILLO       SUNNY     91  57  31 MISG      29.99F                  
BORGER         SUNNY     91  63  39 VRB6      29.96F                  
CANADIAN       MOSUNNY   91  66  43 NW3       29.94F                  
DALHART        MOSUNNY   91  55  29 S14       30.00F                  
DUMAS          CLEAR     89  58  35 SW7       30.00F                  
GUYMON         NOT AVBL                                               
HEREFORD       PTCLDY    95  55  25 S7        30.02F                  
PAMPA          PTCLDY    91  61  37 W5        29.99F                  
PERRYTON       SUNNY     88  63  43 CALM      29.97F                  
$$

SOUTHERN PANHANDLE/SOUTH PLAINS/ROLLING PLAINS
  
CITY           SKY/WX    TMP DP  RH WIND       PRES   REMARKS
LUBBOCK        MOSUNNY   96  57  27 S10       29.98F                  
SNYDER         SUNNY     95  58  29 E8        29.95F                  
CHILDRESS      SUNNY     93  64  38 CALM      29.92F                  
SEMINOLE       CLEAR     93  56  28 S3        30.02S                  
$$

PERMIAN BASIN
  
CITY           SKY/WX    TMP DP  RH WIND       PRES   REMARKS
MIDLAND        SUNNY     96  58  27 E7        29.96F                  
ODESSA         SUNNY     94  55  26 VRB7      29.98F                  
WINK           SUNNY     95  59  30 SE8       29.94F                  
$$

FAR WEST/SOUTHWEST MOUNTAINS/TRANS PECOS
  
CITY           SKY/WX    TMP DP  RH WIND       PRES   REMARKS
ALPINE         CLEAR     90  52  27 E7        30.13S                  
DRYDEN           N/A     99  58  25 NE13G22   29.90F                  
EL PASO        MOSUNNY  102  34   9 E5        29.95F                  
FORT STOCKTON  SUNNY     94  57  28 VRB6      29.97F                  
GUADALUPE PASS MOSUNNY   90  51  26 E13G22    30.15                   
MARFA          SUNNY     90  52  27 MISG        N/A                   
PECOS          CLEAR     95  57  27 SE7       29.94F                  
$$

DALLAS/FORT WORTH METROPLEX
  
CITY           SKY/WX    TMP DP  RH WIND       PRES   REMARKS
DFW AIRPORT    MOSUNNY   96  61  31 CALM      29.82F                  
FTW MEACHAM    SUNNY    N/A N/A N/A VRB3      29.83F                  
DAL-EXECUTIVE  MOSUNNY   98  67  36 SE7       29.83F                  
GRAND PRAIRIE  SUNNY     99  59  26 W5        29.85F                  
ADDISON        SUNNY     97  59  28 CALM      29.86F                  
MESQUITE       PTCLDY    97  66  36 SE8       29.84F                  
LANCASTER      CLEAR     94  72  48 SE5       29.85F                  
$$

NORTH CENTRAL TEXAS
  
CITY           SKY/WX    TMP DP  RH WIND       PRES   REMARKS
SHRMAN/DENISON CLEAR     93  68  44 NW7       29.86F                  
GAINESVILLE    NOT AVBL                                               
BRIDGEPORT     CLEAR     96  62  32 SW5       29.87F                  
DENTON         MOSUNNY   95  68  41 S8        29.84F                  
WAXAHACHIE     MOCLDY    97  67  37 E3        29.85F                  
GRANBURY       MOCLDY    98  60  28 CALM      29.85F                  
$$

WESTERN NORTH TEXAS
  
CITY           SKY/WX    TMP DP  RH WIND       PRES   REMARKS
WICHITA FALLS  MOSUNNY   98  61  29 NW7       29.84F                  
VERNON         CLEAR     98  58  26 NW7       29.88F                  
BRECKENRIDGE   MOCLDY    98  55  23 CALM      29.87F HAZE             
COMANCHE       SUNNY     98  62  30 SE6       29.89F                  
$$

CENTRAL AND SOUTH CENTRAL TEXAS
  
CITY           SKY/WX    TMP DP  RH WIND       PRES   REMARKS
AUSTIN/BERGSTM PTSUNNY   93  71  48 SE12      29.86F                  
WACO           SUNNY     97  67  37 SE7       29.84F                  
HILLSBORO      CLEAR     96  65  35 S5        29.85F                  
TEMPLE         MOSUNNY   93  71  48 CALM      29.86F                  
KILLEEN-GRAY   MOSUNNY   94  68  42 S7        29.86F                  
FORT HOOD      SUNNY     94  67  40 CALM      29.83F                  
GEORGETOWN     PTSUNNY   92  72  51 S9        29.88F                  
LAGO VISTA     FAIR      91  68  46 S3        29.90F                  
SAN MARCOS     MOSUNNY   90  73  57 S7        29.88F                  
NEW BRAUNFELS  MOSUNNY   91  72  53 SE13      29.87S                  
RANDOLPH AFB   CLOUDY    91  73  55 S12       29.88F                  
SAN ANTONIO    PTSUNNY   92  70  48 S12       29.88F                  
STINSON        PTSUNNY   90  73  57 SE14      29.86F                  
PLEASANTON     NOT AVBL                                               
LA GRANGE      MOSUNNY   91  77  63 S10       29.86S                  
GIDDINGS       PTCLDY    89  73  59 S5        29.88F                  
$$

EAST TEXAS
  
CITY           SKY/WX    TMP DP  RH WIND       PRES   REMARKS
PARIS            N/A     90  73  57 NW8       29.86F                  
CLARKSVILLE    NOT AVBL                                               
TYLER          MOSUNNY   90  71  53 S9        29.86F                  
LONGVIEW       MOSUNNY   90  74  59 SW7       29.85F                  
PALESTINE      CLEAR     91  71  52 CALM      29.87F                  
NACOGDOCHES      N/A     90  76  63 NW6       29.86F                  
$$

TEXAS HILL COUNTRY AND EDWARDS PLATEAU
  
CITY           SKY/WX    TMP DP  RH WIND       PRES   REMARKS
LLANO          PTCLDY    97  70  41 SE9       29.91                   
HORSESHOE BAY  FAIR      92  66  43 S6        29.89F                  
KERRVILLE      MOSUNNY   92  67  44 S9        29.92F                  
FREDERICKSBRG  CLOUDY    90  63  40 CALM      29.92F                  
ROCKSPRINGS    PTCLDY    91  63  38 SE14      29.99F                  
HONDO          CLOUDY    91  71  51 SE10      29.88F                  
UVALDE         MOCLDY    89  69  50 SE10      29.89S                  
DEL RIO        MOSUNNY   96  68  39 E14G24    29.84S                  
$$

SOUTHEAST TEXAS
  
CITY           SKY/WX    TMP DP  RH WIND       PRES   REMARKS
COLLEGE STN    CLOUDY    90  75  61 S5        29.86F                  
CALDWELL       PTCLDY    90  76  62 E5        29.87S                  
CROCKETT       PTCLDY    91  73  55 CALM      29.88S                  
BRENHAM        MOSUNNY   89  74  61 SE8       29.87F                  
HUNTSVILLE     PTSUNNY   89  76  65 S7        29.87S                  
CONROE         PTSUNNY   88  78  72 S9        29.87F                  
HOUSTON BUSH   CLOUDY    88  76  67 S6        29.87F                  
HOUSTON HOBBY  PTSUNNY   85  78  80 S8        29.87F                  
PERLAND        FAIR      85  75  72 S7        29.88F                  
WHARTON        CLOUDY    83  73  72 S3        29.89F                  
$$

THE UPPER TEXAS COAST
  
CITY           SKY/WX    TMP DP  RH WIND       PRES   REMARKS
ORANGE         FAIR      84  78  82 S6        29.89F                  
PORT ARTHUR    FAIR      86  75  69 S16       29.87F                  
GALVESTON      FAIR      84  78  82 S9        29.88F                  
ANGLETON       PTSUNNY   86  75  69 S7        29.87F                  
BAY CITY       FAIR      85  76  74 SE5       29.88S                  
$$

TEXAS COASTAL BEND, RIO GRANDE PLAINS DEEP SOUTH TEXAS
  
CITY           SKY/WX    TMP DP  RH WIND       PRES   REMARKS
VICTORIA       PTSUNNY   85  74  69 E8        29.88F                  
BEEVILLE       FAIR      81  77  86 E8        29.87F                  
ROCKPORT       CLOUDY    83  77  82 SE10      29.86F                  
PORT ARANSAS   CLOUDY    83  78  85 E10       29.86F                  
PORT LAVACA    CLOUDY    83  76  78 E8        29.87F                  
CORPUS CHRISTI CLOUDY    83  79  88 E12       29.84F                  
KINGSVILLE NAS CLOUDY    81  78  91 E12       29.82F                  
COTULLA        PTSUNNY   86  74  67 SE14      29.87S                  
LAREDO         CLOUDY    78  76  93 NE9       29.86S                  
BROWNSVILLE    PTSUNNY   85  78  80 E12       29.81F                  
PORT ISABEL    FAIR      85  74  69 SE15      29.81F                  
HEBBRONVILLE   CLOUDY    76  73  89 SE9       29.86S                  
MCALLEN        CLOUDY    83  78  85 E9        29.81F                  
WESLACO        NOT AVBL                                               
FALFURRIAS     CLOUDY    76  74  92 E5        29.83S                  
EDINBURG       CLOUDY    82  76  82 E10       29.82F                  
$$